When you browse on this site, cookies collect data to enhance your experience and personalize the content and advertising you see.
Visit our Privacy Policy to learn more. By continuing to use the site, you agree to this use of cookies and data.
  • Em Portugal
  • Lista de países
  • Para 7 dias
  • Temperatura da água
  • Mapas de satélite
  • Mapa do tempo
  • Widgets de tempo
  • user-avatar
    Iniciar Sessão

    Previsão horária em Mieruniszki

    Hoje, 21 Março, Quinta-feira

    Tempo Temperatura Precipitação Vento Pressão Humidade
    00:00 +3°C° 0 mm 6 m/s 752 mmHg 73%
    01:00 +3°C° 0 mm 6 m/s 752 mmHg 80%
    02:00 +4°C° 0 mm 4 m/s 752 mmHg 88%
    03:00 +4°C° 0 mm 4 m/s 752 mmHg 90%
    04:00 +3°C° 0 mm 4 m/s 752 mmHg 92%
    05:00 +3°C° 0 mm 4 m/s 752 mmHg 94%
    06:00 +3°C° 0 mm 4 m/s 752 mmHg 92%
    07:00 +3°C° 0 mm 4 m/s 752 mmHg 90%
    08:00 +3°C° 0 mm 4 m/s 753 mmHg 88%
    09:00 +4°C° 0 mm 4 m/s 753 mmHg 82%
    10:00 +5°C° 0 mm 5 m/s 753 mmHg 77%
    11:00 +6°C° 0 mm 5 m/s 753 mmHg 71%
    12:00 +7°C° 0 mm 5 m/s 753 mmHg 68%
    13:00 +8°C° 0 mm 5 m/s 753 mmHg 65%
    14:00 +8°C° 0 mm 5 m/s 753 mmHg 63%
    15:00 +8°C° 0 mm 5 m/s 752 mmHg 67%
    16:00 +8°C° 0 mm 5 m/s 752 mmHg 71%
    17:00 +8°C° 0 mm 4 m/s 752 mmHg 75%
    18:00 +8°C° 0.1 mm 5 m/s 752 mmHg 78%
    19:00 +8°C° 0.1 mm 5 m/s 752 mmHg 82%
    20:00 +7°C° 0.1 mm 6 m/s 751 mmHg 85%
    21:00 +7°C° 0.1 mm 6 m/s 751 mmHg 87%
    22:00 +7°C° 0.1 mm 6 m/s 751 mmHg 88%
    23:00 +7°C° 0.1 mm 6 m/s 751 mmHg 89%

    Amanhã, 22 Março, Sexta-feira

    Tempo Temperatura Precipitação Vento Pressão Humidade
    00:00 +7°C° 0.1 mm 6 m/s 751 mmHg 89%
    01:00 +7°C° 0.1 mm 6 m/s 751 mmHg 90%
    02:00 +7°C° 0.1 mm 6 m/s 751 mmHg 90%
    03:00 +7°C° 0 mm 6 m/s 751 mmHg 90%
    04:00 +7°C° 0 mm 6 m/s 751 mmHg 90%
    05:00 +5°C° 0 mm 6 m/s 751 mmHg 90%
    06:00 +5°C° 0 mm 6 m/s 752 mmHg 90%
    07:00 +5°C° 0 mm 6 m/s 753 mmHg 89%
    08:00 +6°C° 0 mm 5 m/s 754 mmHg 89%
    09:00 +6°C° 0 mm 5 m/s 754 mmHg 75%
    10:00 +7°C° 0 mm 6 m/s 755 mmHg 61%
    11:00 +7°C° 0 mm 6 m/s 755 mmHg 47%
    12:00 +7°C° 0 mm 6 m/s 756 mmHg 43%
    13:00 +7°C° 0 mm 5 m/s 756 mmHg 40%
    14:00 +8°C° 0 mm 5 m/s 756 mmHg 37%
    15:00 +7°C° 0 mm 5 m/s 756 mmHg 38%
    16:00 +7°C° 0 mm 5 m/s 756 mmHg 39%
    17:00 +7°C° 0 mm 5 m/s 756 mmHg 40%
    18:00 +6°C° 0 mm 4 m/s 756 mmHg 46%
    19:00 +4°C° 0 mm 3 m/s 756 mmHg 53%
    20:00 +4°C° 0 mm 2 m/s 756 mmHg 59%
    21:00 +4°C° 0 mm 2 m/s 756 mmHg 61%
    22:00 +3°C° 0 mm 2 m/s 756 mmHg 63%
    23:00 +3°C° 0 mm 1 m/s 756 mmHg 65%

    Depois de amanhã, 23 Março, Sábado

    Tempo Temperatura Precipitação Vento Pressão Humidade
    00:00 +3°C° 0 mm 1 m/s 756 mmHg 65%
    01:00 +3°C° 0 mm 1 m/s 756 mmHg 65%
    02:00 +1°C° 0 mm 0 m/s 756 mmHg 65%
    03:00 +2°C° 0 mm 1 m/s 755 mmHg 64%
    04:00 +2°C° 0 mm 1 m/s 755 mmHg 63%
    05:00 +1°C° 0 mm 2 m/s 754 mmHg 62%
    06:00 +1°C° 0 mm 2 m/s 754 mmHg 61%
    07:00 +2°C° 0 mm 2 m/s 754 mmHg 60%
    08:00 +1°C° 0 mm 3 m/s 754 mmHg 59%
    09:00 +3°C° 0 mm 3 m/s 753 mmHg 55%
    10:00 +5°C° 0 mm 4 m/s 753 mmHg 51%
    11:00 +7°C° 0 mm 4 m/s 753 mmHg 47%
    12:00 +8°C° 0 mm 4 m/s 752 mmHg 47%
    13:00 +9°C° 0 mm 5 m/s 751 mmHg 47%
    14:00 +12°C° 0 mm 5 m/s 751 mmHg 47%
    15:00 +12°C° 0 mm 5 m/s 750 mmHg 51%
    16:00 +12°C° 0 mm 5 m/s 750 mmHg 56%
    17:00 +12°C° 0 mm 4 m/s 749 mmHg 60%
    18:00 +11°C° 0.1 mm 4 m/s 749 mmHg 67%
    19:00 +11°C° 0.1 mm 4 m/s 749 mmHg 75%
    20:00 +10°C° 0.1 mm 3 m/s 748 mmHg 82%
    21:00 +8°C° 0.1 mm 4 m/s 748 mmHg 85%
    22:00 +7°C° 0.1 mm 4 m/s 748 mmHg 89%
    23:00 +6°C° 0.1 mm 5 m/s 748 mmHg 92%

    24 Março, Domingo

    Tempo Temperatura Precipitação Vento Pressão Humidade
    00:00 +5°C° 0 mm 5 m/s 748 mmHg 89%
    01:00 +3°C° 0 mm 5 m/s 749 mmHg 87%
    02:00 +2°C° 0 mm 5 m/s 749 mmHg 85%
    03:00 +3°C° 0 mm 4 m/s 749 mmHg 82%
    04:00 +1°C° 0 mm 4 m/s 749 mmHg 80%
    05:00 0°C° 0 mm 4 m/s 749 mmHg 78%
    06:00 0°C° 0 mm 4 m/s 749 mmHg 78%
    07:00 +1°C° 0 mm 4 m/s 750 mmHg 77%
    08:00 +1°C° 0 mm 4 m/s 750 mmHg 77%
    09:00 +3°C° 0 mm 4 m/s 750 mmHg 71%
    10:00 +3°C° 0 mm 5 m/s 750 mmHg 65%
    11:00 +5°C° 0 mm 5 m/s 750 mmHg 59%
    12:00 +5°C° 0 mm 5 m/s 750 mmHg 56%
    13:00 +5°C° 0 mm 6 m/s 750 mmHg 53%
    14:00 +5°C° 0 mm 6 m/s 750 mmHg 50%
    15:00 +5°C° 0 mm 6 m/s 750 mmHg 52%
    16:00 +4°C° 0 mm 6 m/s 749 mmHg 55%
    17:00 +3°C° 0 mm 6 m/s 749 mmHg 57%
    18:00 +2°C° 0 mm 5 m/s 749 mmHg 63%
    19:00 +1°C° 0 mm 5 m/s 750 mmHg 69%
    20:00 0°C° 0 mm 4 m/s 750 mmHg 75%
    21:00 +1°C° 0 mm 3 m/s 750 mmHg 79%
    22:00 0°C° 0 mm 3 m/s 750 mmHg 84%
    23:00 -1°C° 0 mm 3 m/s 749 mmHg 88%

    25 Março, Segunda-feira

    Tempo Temperatura Precipitação Vento Pressão Humidade
    00:00 -1°C° 0 mm 3 m/s 749 mmHg 90%
    01:00 -1°C° 0 mm 2 m/s 749 mmHg 92%
    02:00 -1°C° 0 mm 2 m/s 749 mmHg 94%
    03:00 -1°C° 0 mm 3 m/s 748 mmHg 94%
    04:00 -1°C° 0 mm 3 m/s 748 mmHg 94%
    05:00 -1°C° 0 mm 3 m/s 747 mmHg 94%
    06:00 -2°C° 0 mm 4 m/s 747 mmHg 91%
    07:00 -1°C° 0 mm 4 m/s 747 mmHg 88%
    08:00 0°C° 0 mm 5 m/s 746 mmHg 85%
    09:00 +1°C° 0.1 mm 5 m/s 745 mmHg 77%
    10:00 +2°C° 0.1 mm 6 m/s 745 mmHg 69%
    11:00 +4°C° 0.1 mm 6 m/s 744 mmHg 61%
    12:00 +3°C° 0.6 mm 6 m/s 743 mmHg 67%
    13:00 +2°C° 0.6 mm 7 m/s 743 mmHg 73%
    14:00 0°C° 0.6 mm 7 m/s 742 mmHg 80%
    15:00 +1°C° 0.4 mm 6 m/s 742 mmHg 78%
    16:00 +1°C° 0.4 mm 6 m/s 741 mmHg 77%
    17:00 +1°C° 0.4 mm 5 m/s 741 mmHg 76%
    18:00 +1°C° 0 mm 4 m/s 741 mmHg 79%
    19:00 0°C° 0 mm 4 m/s 741 mmHg 82%
    20:00 0°C° 0 mm 3 m/s 741 mmHg 85%
    21:00 -1°C° 0 mm 3 m/s 741 mmHg 86%
    22:00 -1°C° 0 mm 3 m/s 741 mmHg 87%
    23:00 -2°C° 0 mm 3 m/s 742 mmHg 88%

    26 Março, Terça-feira

    Tempo Temperatura Precipitação Vento Pressão Humidade
    00:00 -2°C° 0 mm 3 m/s 742 mmHg 89%
    01:00 -2°C° 0 mm 3 m/s 742 mmHg 90%
    02:00 -2°C° 0 mm 3 m/s 743 mmHg 90%
    03:00 -2°C° 0 mm 3 m/s 744 mmHg 91%
    04:00 -2°C° 0 mm 3 m/s 744 mmHg 92%
    05:00 -2°C° 0 mm 3 m/s 745 mmHg 93%
    06:00 -2°C° 0 mm 4 m/s 746 mmHg 91%
    07:00 -1°C° 0 mm 4 m/s 747 mmHg 90%
    08:00 0°C° 0 mm 5 m/s 748 mmHg 88%
    09:00 +1°C° 0 mm 5 m/s 748 mmHg 82%
    10:00 +2°C° 0 mm 5 m/s 749 mmHg 76%
    11:00 +3°C° 0 mm 5 m/s 750 mmHg 70%
    12:00 +3°C° 0 mm 5 m/s 750 mmHg 67%
    13:00 +5°C° 0 mm 5 m/s 750 mmHg 63%
    14:00 +6°C° 0 mm 5 m/s 750 mmHg 59%
    15:00 +4°C° 0 mm 6 m/s 750 mmHg 63%
    16:00 +3°C° 0 mm 6 m/s 750 mmHg 66%
    17:00 +2°C° 0 mm 6 m/s 750 mmHg 70%
    18:00 +1°C° 0 mm 6 m/s 750 mmHg 75%
    19:00 0°C° 0 mm 5 m/s 750 mmHg 80%
    20:00 -1°C° 0 mm 4 m/s 750 mmHg 84%
    21:00 -1°C° 0 mm 4 m/s 750 mmHg 83%
    22:00 -1°C° 0 mm 4 m/s 750 mmHg 82%
    23:00 -1°C° 0 mm 4 m/s 749 mmHg 81%
    Mostrar mais